Regional Weather Roundup
Issued by NWS Grand Forks, ND

Home | Current Version | Previous Version | Text Only | Print | Product List | Glossary Off
Versions: 1 2 3 4 5 6 7 8 9 10 11 12 13 14 15 16 17 18 19 20 21 22 23 24 25 26 27 28 29 30 31 32 33 34 35 36 37 38 39 40 41 42 43 44 45 46 47 48 49 50

000
ASUS43 KFGF 231810
RWRFGF
PRAIRIE TO PINES  WEATHER ROUNDUP
NATIONAL WEATHER SERVICE EASTERN NORTH DAKOTA/GRAND FORKS ND
100 PM CDT FRI JUN 23 2017

 **SATELLITE DATA USED TO AUGMENT SKY COVER AT AUTOMATED STATIONS**
 *****  WEATHER ACROSS EASTERN NORTH DAKOTA  *****

CITY           SKY/WX    TMP DP  RH WIND       PRES   REMARKS
GRAND FORKS    CLOUDY    63  49  60 NW22G28   29.88S
6HR MIN TEMP:  58; 6HR MAX TEMP:  64; 6HR PCP: TRACE;

GRAND FRKS AFB PTSUNNY   63  46  54 NW15G32   29.89S
DEVILS LAKE    CLOUDY    61  42  49 NW22G29   29.94S
6HR MIN TEMP:  55; 6HR MAX TEMP:  61;

FARGO          CLOUDY    63  49  60 NW23G29   29.89S
WAHPETON ARPT  CLOUDY    63  46  55 NW20G29   29.91R
$$

 ***** WEATHER ACROSS CENTRAL AND WESTERN NORTH DAKOTA  *****

CITY           SKY/WX    TMP DP  RH WIND       PRES   REMARKS
BISMARCK       FAIR      62  36  37 NW22G31   30.07S
6HR MIN TEMP:  55; 6HR MAX TEMP:  66;

MINOT          PTSUNNY   62  38  40 W24G35    30.03S
6HR MIN TEMP:  53; 6HR MAX TEMP:  63;

JAMESTOWN      CLOUDY    61  43  51 NW24G32   29.96S
6HR MIN TEMP:  56; 6HR MAX TEMP:  62;

MINOT AFB      CLOUDY    58  38  47 NW24G33   30.02R
GARRISON         N/A     58  37  45 NW26G33   30.05S
WILLISTON      FAIR      64  33  31 NW28G40   30.14R
6HR MIN TEMP:  48; 6HR MAX TEMP:  64;

DICKINSON      PTSUNNY   62  28  27 NW23G33   30.11F
6HR MIN TEMP:  47; 6HR MAX TEMP:  62;

HETTINGER      FAIR      60  29  30 NW29G39   30.15F
6HR MIN TEMP:  48; 6HR MAX TEMP:  63;

$$

 *****  OTHER AIRPORT OBSERVATIONS IN OUR AREA  *****

CITY           SKY/WX    TMP DP  RH WIND       PRES   REMARKS
WALHALLA       NOT AVBL
GRAFTON AIRPOR CLOUDY    61  48  63 NW21      29.90S
VALLEY CITY AR CLOUDY    59  46  63 NW22G30   29.97R
CANDO          NOT AVBL
CAVALIER APRT  CLOUDY    59  46  63 NW20      29.88R
GWINNER        CLOUDY    63  48  59 NW23      29.95S
SHEYENNE NWR     N/A     64  48  56 NW17      29.95S
ROLLA            N/A     57  39  51 NW25G33   29.96R
 ***** THE ABOVE OBSERVATIONS ARE NON NWS ARE NOT QUALITY
       CONTROLLED AND MAY MIS-REPORT RAIN FOR SNOW...
$$

  *****  WEATHER ACROSS NORTHERN MINNESOTA  *****

CITY           SKY/WX    TMP DP  RH WIND       PRES   REMARKS
FLAG ISLAND    PTSUNNY   61  54  77 NW23      29.74S
WARROAD        PTSUNNY   61  55  82 W15G21    29.78S
ROSEAU           N/A     57  54  88 NW16G22   29.81R
HALLOCK        CLOUDY    57  52  82 NW13      29.87R
THF RVR FALLS  CLOUDY    59  49  69 NW17G25   29.86R
6HR MIN TEMP:  57; 6HR MAX TEMP:  61;

BAUDETTE       CLOUDY    59  56  89 NW15G23   29.75R
6HR MIN TEMP:  53; 6HR MAX TEMP:  65; 6HR PCP:  0.04;

WASKISH        LGT RAIN  59  55  88 W14G20    29.79R
CROOKSTON      CLOUDY    61  50  67 NW17G30   29.88R
STEPHEN NDAWN    N/A     57  48  72 NW20        N/A
GREENBUSH NDAW   N/A     57  48  72 NW20        N/A
$$
  *****  WEATHER ACROSS CENTRAL AND WEST MINNESOTA  *****

CITY           SKY/WX    TMP DP  RH WIND       PRES   REMARKS
FOSSTON        CLOUDY    61  50  67 NW15G29   29.85R
BEMIDJI        PTSUNNY   63  53  71 W20G26    29.80S
PARK RAPIDS    PTSUNNY   62  54  74 NW16G28   29.82R
6HR MIN TEMP:  58; 6HR MAX TEMP:  68; 6HR PCP: TRACE;

ELBOW LAKE     CLOUDY    61  53  74 NW20G25   29.91R
6HR MIN TEMP:  57; 6HR MAX TEMP:  62; 6HR PCP:  0.04;

WADENA         PTSUNNY   63  54  72 NW10G24   29.84S
DETROIT LAKES  PTSUNNY   57  54  88 NW21G29   29.89R
MOORHEAD       CLOUDY    63  48  59 NW22G28   29.90R
FERGUS FALLS   PTSUNNY   61  54  77 NW21      29.88R
MORRIS MN      PTSUNNY   66  52  59 NW23      29.90S
STAPLES        PTSUNNY   64  52  63 NW17G25   29.83S
$$
  *****  WEATHER ELSEWHERE ACROSS MINNESOTA  *****

CITY           SKY/WX    TMP DP  RH WIND       PRES   REMARKS
DULUTH         PTSUNNY   65  47  52 NW17G26   29.71R
6HR MIN TEMP:  54; 6HR MAX TEMP:  67;

INTRNTL FALLS  FAIR      67  48  50 NW18G25   29.71R
6HR MIN TEMP:  55; 6HR MAX TEMP:  68; 6HR PCP:  0.01;

ELY            PTSUNNY   61  52  72 W10G18    29.68S
CLOQUET        PTSUNNY   66  45  45 W20G28    29.73S
WHEATON        CLOUDY    63  48  59 W20G26    29.94R
BRAINERD       CLOUDY    65  51  60 NW10      29.80F
6HR MIN TEMP:  57; 6HR MAX TEMP:  66; 6HR PCP: TRACE;

HIBBING        FAIR      64  49  57 NW16G26   29.72R
6HR MIN TEMP:  53; 6HR MAX TEMP:  65;

ALEXANDRIA     CLOUDY    62  53  72 NW20G32   29.89R
6HR MIN TEMP:  58; 6HR MAX TEMP:  65; 6HR PCP:  0.02;

SAINT CLOUD    CLOUDY    69  50  50 NW16G26   29.81R
6HR MIN TEMP:  58; 6HR MAX TEMP:  70;

MINNEAPOLIS    PTSUNNY   69  52  54 NW21      29.80S
6HR MIN TEMP:  62; 6HR MAX TEMP:  70;

$$

  *****  WEATHER ACROSS SOUTH DAKOTA  *****

CITY           SKY/WX    TMP DP  RH WIND       PRES   REMARKS
SIOUX FALLS    CLOUDY    63  53  70 NW16G22   29.99F
6HR MIN TEMP:  57; 6HR MAX TEMP:  64;

BROOKINGS      CLOUDY    61  48  63 NW18G26   29.99S
WATERTOWN      CLOUDY    59  49  69 NW21G28   29.98S
6HR MIN TEMP:  55; 6HR MAX TEMP:  60; 6HR PCP: TRACE;

HURON          CLOUDY    65  46  50 NW26G37   30.02S
6HR MIN TEMP:  57; 6HR MAX TEMP:  66;

SISSETON         N/A     64  49  57 NW24G33   29.94R
ABERDEEN       CLOUDY    62  46  55 W20G29    30.01S
6HR MIN TEMP:  58; 6HR MAX TEMP:  63;

MITCHELL       CLOUDY    68  46  45 NW16G31   30.03S
PIERRE         FAIR      65  38  36 NW26G36   30.09S
6HR MIN TEMP:  55; 6HR MAX TEMP:  66;

MOBRIDGE       FAIR      67  35  30 NW28G36   30.05F
RAPID CITY     FAIR      65  35  33 N23G32    30.18F
6HR MIN TEMP:  53; 6HR MAX TEMP:  66;

$$

  *****  SOME WEATHER IN NEARBY STATES *****

CITY           SKY/WX    TMP DP  RH WIND       PRES   REMARKS
GLASGOW MT     PTSUNNY   64  32  30 NW20G30   30.21S
6HR MIN TEMP:  41; 6HR MAX TEMP:  64;

GREAT FALLS MT FAIR      63  35  35 NE7       30.29F
6HR MIN TEMP:  40; 6HR MAX TEMP:  64;

CHEYENNE WY    FAIR      58  38  47 S8        30.28F
6HR MIN TEMP:  45; 6HR MAX TEMP:  60;

SCOTTSBLUFF NE FAIR      69  34  27 N14G23    30.21F
6HR MIN TEMP:  54; 6HR MAX TEMP:  69;

OMAHA NE       PTSUNNY   71  53  52 W13       30.01F
6HR MIN TEMP:  63; 6HR MAX TEMP:  71;

DES MOINES IA  PTSUNNY   76  51  41 NW23G32   29.89R
6HR MIN TEMP:  65; 6HR MAX TEMP:  78; 6HR PCP: TRACE;

DAVENPORT IA   FAIR      78  59  51 W15       29.78S
6HR MIN TEMP:  66; 6HR MAX TEMP:  78;

CHICAGO IL     FAIR      79  53  40 NW13G20   29.71R
6HR MIN TEMP:  67; 6HR MAX TEMP:  79; 6HR PCP: TRACE;

EAU CLAIRE WI  CLOUDY    67  52  58 W14G22    29.74S
6HR MIN TEMP:  60; 6HR MAX TEMP:  71;

LA CROSSE WI   PTSUNNY   76  55  48 NW17      29.75R
6HR MIN TEMP:  64; 6HR MAX TEMP:  79;

$$

  *****  SOME NATIONAL WEATHER *****

CITY           SKY/WX    TMP DP  RH WIND       PRES   REMARKS
LA GUARDIA NY  CLOUDY    81  72  74 SW18G30   29.70F
6HR MIN TEMP:  81; 6HR MAX TEMP:  86;

RALEIGH NC     PTSUNNY   88  73  61 SW17G28   29.95F HX  95
6HR MIN TEMP:  75; 6HR MAX TEMP:  88; 6HR PCP: TRACE;

ATLANTA GA     PTSUNNY   85  69  58 S22G28    29.99F
6HR MIN TEMP:  74; 6HR MAX TEMP:  86;

NEW ORLEANS LA PTSUNNY   88  78  72 S17       29.93S HX 101
6HR MIN TEMP:  81; 6HR MAX TEMP:  88; 6HR PCP: TRACE;

OKLAHOMA CITY  FAIR      88  67  49 N17       29.89R HX  91
6HR MIN TEMP:  74; 6HR MAX TEMP:  91;

ALBUQUERQUE NM FAIR      90  28  11 N8        30.10S
6HR MIN TEMP:  72; 6HR MAX TEMP:  91;

SALT LAKE CITY FAIR      79  36  21 NW8       30.17S
6HR MIN TEMP:  60; 6HR MAX TEMP:  79;

LOS ANGELES CA CLOUDY    68  62  81 SW8       29.91R
6HR MIN TEMP:  64; 6HR M


USA.gov is the U.S. government's official web portal to all federal, state and local government web resources and services.